Wind_Speed
45 45 45 45 45 44 44 43 43 42 41 39 39 38 37 36 34 33 33 33 33 32 31 29 28 27 26 26 25 24 23 22 22 23 22 21 20 24 30 35 39 43 46 47 48 47 47 46 45 44 43 43 42 42 42 41 41 41 40 38 37 37 35 34 33 33 32 32 33 31 30 31 31 31 31 30 30 30 30 30 30 31 31 32 32 34 36 34
47 47 47 46 46 46 46 46 45 45 43 42 42 41 40 39 38 36 35 35 35 35 34 32 31 30 28 28 28 27 26 25 25 25 24 22 21 22 26 29 32 37 40 44 47 48 48 48 47 46 46 45 44 44 43 42 42 42 41 40 40 39 37 35 35 35 35 35 34 33 33 33 33 33 33 32 32 32 32 32 32 32 32 33 33 34 34 32
49 49 49 49 49 49 49 48 48 48 47 46 45 44 43 41 41 40 38 37 37 37 37 36 34 33 31 30 30 29 28 28 28 28 26 23 23 23 25 25 25 29 33 38 42 46 48 48 48 48 48 47 47 45 44 43 43 43 43 42 41 40 38 37 37 38 38 36 36 35 35 36 36 36 35 34 34 33 33 33 33 33 33 33 32 33 31 29
51 51 51 51 51 51 51 51 51 50 50 49 48 47 46 45 43 42 41 40 39 39 39 38 38 36 34 33 32 31 30 30 31 32 29 26 25 26 27 25 23 24 28 32 36 41 44 45 47 49 49 49 48 47 46 46 46 45 45 45 44 42 40 40 39 40 40 39 38 38 37 38 38 38 37 36 35 35 34 34 34 33 33 32 31 30 27 27
53 53 53 54 54 54 54 54 53 53 52 51 50 50 49 48 47 45 44 43 42 41 41 41 41 40 38 36 35 34 33 32 33 35 33 28 27 28 29 27 25 24 26 28 31 34 38 39 43 46 47 48 48 48 48 48 48 48 47 47 47 44 43 42 42 41 41 41 41 40 40 39 40 39 38 38 36 36 35 34 34 33 31 30 28 26 24 26
55 55 56 56 56 57 56 56 56 55 55 54 53 52 52 51 50 49 47 46 45 44 43 43 43 43 42 40 38 38 36 34 35 37 36 32 30 31 31 30 28 27 27 28 28 29 31 33 37 40 42 44 46 47 47 48 48 48 48 49 49 47 45 45 44 44 43 43 43 42 41 41 41 40 40 38 37 36 35 34 33 31 29 27 25 22 22 26
57 57 58 58 58 58 58 58 58 57 57 56 55 55 54 53 52 52 50 49 48 47 46 46 45 45 45 43 42 41 39 38 38 37 37 36 35 34 35 32 30 30 29 29 29 29 28 29 31 33 36 39 40 41 43 45 46 46 46 47 48 47 46 46 46 45 45 45 44 44 42 42 42 41 40 39 37 36 34 33 31 28 26 24 21 19 22 25
58 58 59 59 59 59 59 59 59 59 58 58 57 57 56 55 55 53 53 52 51 50 49 49 48 47 47 46 45 44 42 42 41 39 39 39 38 37 38 36 33 32 32 31 30 31 30 28 28 29 30 31 31 34 38 39 41 41 41 42 43 44 44 45 44 44 44 44 43 42 41 41 40 40 38 37 35 33 31 30 28 25 22 19 17 18 22 24
59 59 60 60 61 60 60 60 60 60 60 59 59 59 58 57 56 55 55 54 53 52 51 51 51 50 49 49 48 47 46 45 43 42 41 42 40 39 40 39 36 34 34 33 32 33 33 29 26 26 25 23 24 28 31 32 33 33 33 35 37 38 39 41 41 40 40 40 40 40 39 39 38 37 35 33 32 29 28 26 24 21 17 15 15 18 21 22
59 60 60 61 61 62 61 61 61 61 61 60 59 59 59 59 58 57 56 56 55 54 54 53 53 52 52 51 51 50 49 47 46 45 45 44 43 41 41 42 40 37 36 35 35 35 35 31 27 26 24 23 23 25 27 25 23 24 26 28 29 30 32 34 35 35 35 36 37 36 36 36 35 34 31 29 28 25 24 22 20 17 13 13 15 18 20 20
58 59 60 60 61 61 62 62 61 61 61 61 60 60 60 60 59 59 58 57 57 56 56 55 55 55 54 54 53 52 51 50 50 49 48 47 46 44 42 44 43 41 38 38 38 37 36 33 30 29 28 27 26 26 25 19 17 20 20 20 21 22 24 26 28 29 30 31 32 32 33 32 31 29 26 24 23 22 21 19 16 13 11 13 15 18 19 18
57 58 59 59 60 60 61 61 61 61 61 61 60 61 61 61 60 60 60 59 58 58 58 58 58 57 57 57 55 52 53 53 53 52 50 49 48 47 45 45 45 44 42 41 40 38 37 36 33 33 32 31 28 27 25 18 18 20 19 18 18 18 19 20 22 23 23 23 24 25 26 26 25 24 22 21 20 18 17 15 12 11 11 13 15 17 16 15
59 59 60 60 61 61 61 61 62 62 62 61 61 61 62 62 62 61 61 60 59 59 60 60 60 60 61 60 56 54 55 56 55 53 52 52 51 50 48 47 47 47 46 44 42 40 39 38 36 35 35 34 32 31 27 21 20 22 21 20 19 19 19 18 19 19 18 18 17 16 17 19 21 20 19 17 17 15 12 11 10 10 11 13 15 15 14 13
62 62 63 63 64 64 64 64 64 64 64 63 62 62 63 63 63 63 62 61 60 61 61 61 62 62 63 62 58 57 58 57 56 55 55 55 55 54 52 51 50 50 49 47 44 42 41 40 39 37 36 37 37 35 31 25 23 24 24 22 22 23 20 18 18 17 17 16 14 12 12 15 17 16 16 15 13 11 9 8 9 10 10 12 14 13 12 12
67 67 67 67 68 68 68 68 68 67 67 66 66 65 66 66 65 66 65 62 61 62 62 62 63 64 65 64 61 59 60 59 57 57 58 58 58 57 55 54 53 52 51 49 47 45 43 42 42 40 39 40 39 38 36 31 27 27 27 26 26 26 21 18 19 18 17 16 14 12 11 12 13 13 13 11 10 9 8 8 10 10 11 13 13 12 11 11
71 71 71 71 72 73 73 72 72 72 72 71 70 69 70 70 69 69 68 65 64 64 64 64 64 65 66 65 63 60 61 61 60 60 61 61 60 59 58 56 55 54 53 52 50 48 46 45 45 44 42 40 39 40 40 37 33 31 31 31 30 29 23 20 21 20 18 17 16 14 12 10 10 11 11 10 10 9 9 10 11 12 13 13 12 11 10 10
72 72 73 74 74 76 76 76 77 77 77 76 75 74 74 74 74 74 72 69 68 67 67 67 67 67 67 66 65 62 62 64 64 64 64 64 63 62 60 60 59 57 56 54 51 49 48 48 47 46 44 42 41 42 41 41 40 38 37 36 35 32 27 24 24 21 20 21 19 16 12 10 10 11 11 10 10 10 10 12 14 14 13 12 11 10 9 9
72 73 74 74 75 76 77 77 78 79 80 80 80 79 79 79 80 79 77 74 72 72 71 70 70 69 69 67 67 65 64 66 67 67 66 66 66 64 63 62 61 59 57 55 52 51 50 50 50 47 45 44 42 41 42 46 47 43 41 40 37 34 29 27 27 24 23 24 21 17 14 12 12 13 11 11 11 12 14 16 16 14 12 11 10 9 9 9
71 73 74 74 75 76 77 78 79 79 80 81 82 82 82 83 84 84 82 79 77 77 75 75 74 73 72 70 69 68 67 68 69 69 69 69 68 66 65 64 62 60 58 56 55 54 53 53 51 48 46 46 47 47 49 52 52 47 44 41 37 35 32 30 28 26 25 25 24 21 17 15 15 14 13 13 14 16 18 17 16 14 12 11 10 8 8 9
68 70 72 73 74 75 77 78 79 80 81 82 83 83 84 85 85 87 86 83 82 82 81 79 78 77 76 75 73 72 72 71 70 71 71 71 71 68 66 64 63 62 59 59 59 58 57 55 51 50 51 53 54 53 52 53 53 50 46 44 41 38 36 33 31 29 28 27 27 24 21 18 17 16 16 16 17 20 19 17 16 14 13 12 10 9 8 9
68 69 70 71 72 73 74 76 77 79 80 82 83 84 85 86 86 88 88 86 84 85 85 84 83 82 81 79 78 76 76 75 74 73 72 74 73 70 67 65 64 62 61 62 62 62 59 53 52 56 57 56 55 53 52 53 54 52 49 47 45 42 40 37 34 33 31 30 30 27 24 23 21 20 19 19 21 22 19 18 18 16 14 12 11 9 8 9
72 73 74 74 74 74 75 76 77 78 79 80 82 83 85 87 88 88 89 88 86 85 87 87 86 86 85 84 83 82 80 80 78 76 74 75 75 72 70 67 65 64 65 65 63 62 57 53 58 62 60 58 56 55 54 55 55 53 51 50 48 47 45 41 38 36 35 34 35 31 28 28 26 22 22 22 22 22 19 19 19 17 15 14 12 10 8 8
76 77 78 79 79 79 80 80 81 81 81 81 81 82 84 86 87 88 89 90 89 86 86 88 88 88 88 88 88 87 86 84 83 80 77 77 76 75 72 69 67 67 67 65 63 62 57 58 66 66 61 60 59 56 56 57 56 53 52 52 52 52 50 46 43 40 38 38 38 34 31 32 29 24 24 24 23 22 21 21 21 18 16 15 14 12 9 9
79 80 81 83 84 85 85 86 87 87 86 85 85 85 85 86 87 87 87 89 90 89 87 88 89 89 89 89 90 91 91 89 87 84 82 81 79 77 74 72 71 69 67 66 65 64 61 66 71 64 62 63 61 59 58 57 56 54 53 54 55 56 55 51 47 43 41 42 41 37 34 34 30 27 27 27 25 24 23 23 23 20 17 16 15 13 11 10
80 81 82 84 86 87 88 89 91 92 92 91 91 90 89 89 89 89 88 88 90 90 89 89 89 90 89 90 91 93 93 93 92 89 87 86 83 80 78 76 74 71 70 69 69 66 65 71 71 64 64 66 63 61 59 58 58 56 55 56 59 61 58 54 49 46 45 45 43 40 36 35 33 31 31 29 27 26 25 25 24 21 18 18 16 15 13 12
80 82 83 85 86 87 88 89 91 93 94 94 94 94 93 93 93 92 91 90 91 91 91 90 89 89 89 90 92 94 95 96 96 94 92 91 88 84 82 80 77 75 75 74 72 68 68 73 72 66 66 67 65 62 60 60 59 57 58 60 63 64 60 55 51 48 47 47 46 42 39 38 36 35 34 31 29 28 27 26 25 22 21 20 18 16 15 14
80 81 83 85 86 87 88 89 91 91 92 92 92 92 93 94 95 95 95 94 94 94 93 92 91 89 88 88 90 93 96 97 97 97 95 94 93 89 86 83 81 80 80 79 74 69 70 75 72 68 68 68 65 62 62 62 59 61 63 63 64 65 61 58 53 50 49 50 48 43 41 40 37 37 37 34 31 29 27 27 25 24 23 21 19 18 17 15
79 80 82 84 85 86 88 89 91 91 90 90 89 88 89 90 92 94 95 95 96 97 97 95 94 93 90 90 89 91 95 97 98 99 97 96 96 94 90 88 86 85 85 82 75 71 73 76 73 71 71 69 66 66 67 65 63 66 67 62 63 65 64 60 55 51 51 51 47 43 42 41 39 41 40 36 33 30 28 28 28 27 26 23 21 20 18 17
77 79 81 83 84 85 87 88 90 91 90 90 89 87 86 86 86 88 90 92 94 96 97 97 97 96 95 95 93 92 93 96 98 100 98 97 98 98 95 94 92 90 89 86 79 77 78 78 77 76 73 70 70 72 72 67 66 70 68 64 66 67 65 62 56 53 52 49 45 43 42 41 41 42 40 35 33 32 32 32 32 30 28 25 23 21 20 19
75 77 80 81 82 83 85 85 87 88 88 89 89 88 87 85 85 85 86 88 90 93 94 96 97 97 98 99 97 96 95 95 97 99 99 99 100 101 100 98 97 95 93 90 84 81 82 82 81 77 74 73 75 77 75 70 70 73 70 66 67 67 66 63 57 55 52 46 43 44 43 40 41 42 38 35 36 37 35 35 34 31 29 27 24 22 22 20
73 75 77 78 79 80 81 81 82 82 83 84 85 85 86 85 84 84 85 86 88 89 91 95 97 96 97 98 100 100 99 98 98 98 98 99 101 103 103 102 101 99 97 94 89 86 86 85 81 77 76 76 78 77 75 72 73 75 71 68 67 67 66 62 57 54 48 42 43 46 44 40 40 41 39 38 41 40 37 36 34 32 29 28 25 24 23 22
70 72 74 74 75 75 74 74 75 76 77 78 79 80 81 82 82 82 83 84 85 86 90 93 96 97 97 97 99 100 101 102 102 100 98 99 101 104 106 105 103 101 100 98 93 90 89 86 83 81 80 79 79 78 76 74 75 75 71 69 68 66 65 60 55 51 43 40 43 46 44 39 40 43 42 41 43 41 39 38 36 33 30 29 27 26 25 23
67 69 70 71 71 70 69 69 70 72 73 73 74 76 77 77 78 79 80 82 82 83 87 90 93 97 99 99 99 100 101 104 105 104 102 100 101 104 107 107 105 103 101 101 98 95 93 90 87 85 83 81 79 77 75 74 74 74 72 69 67 65 62 57 54 50 44 43 44 47 46 39 40 45 44 44 46 44 41 40 37 35 32 30 29 27 25 24
63 65 67 68 68 67 67 67 67 68 69 69 69 71 72 72 73 75 76 78 79 80 82 85 89 94 97 99 100 100 101 103 106 107 106 104 103 104 106 108 108 106 104 103 102 99 97 93 89 86 84 82 81 79 77 77 77 76 74 72 69 65 61 58 56 53 49 46 46 49 46 39 41 49 48 48 49 46 43 41 38 36 33 32 30 27 25 25
62 64 65 66 66 66 65 64 63 64 65 64 65 65 66 66 67 69 71 73 75 77 78 81 85 90 93 97 99 101 103 103 105 108 108 107 106 105 107 108 109 109 107 106 105 103 100 95 90 89 87 86 84 82 82 81 80 79 77 75 69 64 63 62 60 57 54 52 51 50 46 41 47 54 53 51 50 45 44 42 39 37 35 33 30 27 26 26
62 63 64 65 65 63 62 60 59 59 59 60 60 61 61 61 61 63 65 67 69 72 74 77 80 85 90 94 97 100 103 104 105 107 109 110 110 108 108 109 110 110 109 108 107 105 102 97 94 93 91 88 86 85 85 84 81 80 79 73 66 66 68 67 63 60 58 55 52 51 48 47 54 57 53 51 49 46 45 42 40 39 37 34 31 29 28 27
63 63 63 62 61 60 58 56 55 54 54 55 56 56 56 56 56 58 60 62 64 67 70 72 75 80 86 91 95 98 102 104 105 106 108 111 112 112 111 111 111 111 111 110 108 106 103 99 98 97 94 91 90 89 89 86 84 83 79 72 69 73 73 68 64 62 57 52 51 52 50 50 56 56 52 50 49 47 46 43 42 41 39 35 32 31 30 29
63 63 62 59 57 56 54 52 51 50 50 51 51 52 51 51 53 55 56 57 59 62 65 68 71 76 81 87 92 96 99 102 104 105 106 109 113 114 113 113 112 112 111 111 110 108 104 101 101 100 97 95 94 93 92 89 86 84 79 75 76 77 73 67 63 59 55 52 52 52 50 49 54 55 51 50 50 49 48 45 44 43 40 36 35 33 32 31
61 61 59 56 53 51 48 46 46 46 46 47 47 48 48 48 50 52 53 54 56 58 60 64 68 72 76 82 88 93 97 101 103 104 105 106 110 114 115 115 114 114 113 112 111 109 105 103 104 104 101 99 97 96 93 89 86 84 81 79 79 77 72 68 65 61 58 55 54 54 51 48 51 55 52 51 51 51 49 46 45 43 40 38 37 35 34 34
57 58 57 52 48 45 43 42 42 42 42 42 43 43 44 45 46 48 50 52 54 56 58 60 64 68 73 78 84 89 94 98 101 104 104 104 107 112 115 116 116 116 115 113 112 110 108 106 106 106 104 102 100 98 94 91 89 86 83 80 78 76 72 70 67 64 62 58 56 57 54 49 53 57 55 54 54 52 50 47 45 43 42 40 38 37 37 37
54 54 54 49 44 41 40 40 41 40 40 40 41 40 41 42 43 44 46 49 53 55 56 58 60 64 68 73 78 83 89 94 98 101 103 103 104 108 114 117 118 118 116 115 113 111 109 108 108 108 106 104 102 99 96 95 93 90 86 82 80 77 75 73 68 63 60 57 56 57 54 52 56 60 58 57 56 54 51 48 45 44 43 41 40 40 40 39
50 48 49 47 43 40 40 40 40 40 40 40 40 39 39 40 41 42 43 47 50 52 55 56 57 59 62 67 73 76 82 88 94 98 101 102 103 105 110 115 117 118 118 116 114 112 110 109 109 109 107 104 103 102 100 98 95 93 89 85 84 81 79 74 67 63 61 58 57 57 54 54 59 63 63 60 57 54 51 49 47 46 45 43 42 42 42 40
48 43 43 44 42 39 40 41 41 41 40 40 40 38 37 38 39 40 41 44 47 49 51 53 54 55 57 62 68 72 77 82 88 93 97 100 101 102 106 112 116 118 118 118 115 113 111 110 110 110 107 105 105 105 104 102 99 96 92 88 87 84 80 75 68 67 66 62 60 57 54 57 64 67 66 61 56 54 51 49 47 46 44 44 44 44 43 41
46 41 39 41 42 40 41 42 43 42 40 40 40 39 38 37 38 39 40 42 43 45 46 47 48 52 54 58 64 69 73 77 83 88 93 96 99 100 102 107 113 116 117 118 116 114 112 110 111 112 110 109 109 109 108 106 102 99 94 91 89 85 82 77 74 73 70 65 62 58 56 62 66 65 65 60 55 52 49 48 48 47 46 46 46 46 44 43
43 40 37 38 41 42 42 43 44 43 41 40 40 40 39 38 37 39 40 41 42 41 41 40 43 47 52 56 60 64 69 73 78 84 88 92 95 98 100 103 109 114 116 117 117 114 112 110 111 114 114 112 112 111 110 108 105 101 97 94 91 88 85 80 78 75 68 64 63 59 59 66 65 63 63 59 54 52 50 49 49 49 48 49 49 49 47 44
40 39 37 37 39 41 42 44 45 45 43 42 40 40 40 39 38 38 39 40 40 39 37 36 39 43 48 53 57 60 64 70 75 80 84 88 91 95 98 100 104 110 113 116 116 115 113 111 111 114 115 114 112 111 109 107 104 102 99 95 93 90 86 83 80 74 67 65 63 59 63 69 65 62 62 59 55 53 51 50 50 50 51 52 53 51 48 45
37 36 36 37 38 39 40 42 44 45 44 43 42 41 41 40 39 38 38 38 38 36 34 34 36 39 44 49 53 56 60 66 71 76 80 84 87 90 95 98 100 105 110 113 114 114 113 112 111 113 115 115 113 112 109 105 103 101 99 96 94 91 88 84 79 73 70 68 63 61 68 70 65 63 63 60 58 55 52 51 51 52 53 55 55 52 48 46
35 35 35 35 37 39 39 41 43 43 42 42 42 41 41 42 41 40 38 36 35 33 31 31 33 36 40 44 49 52 56 61 67 72 76 79 82 85 90 95 97 101 105 109 112 113 113 112 111 112 114 114 114 113 109 106 103 101 98 96 95 93 89 84 79 75 73 69 64 66 72 70 66 66 66 64 62 58 55 53 52 53 54 55 54 52 49 47
35 34 34 34 35 38 40 41 43 43 42 42 41 41 41 41 41 41 39 35 32 30 28 28 30 33 36 40 45 48 52 57 63 69 72 75 77 81 85 90 94 97 100 105 108 110 111 112 110 110 112 114 114 113 111 107 104 101 99 97 96 93 89 85 81 78 75 71 69 72 74 71 69 70 69 67 64 59 57 55 54 54 55 55 54 52 50 47
37 35 33 33 34 37 40 41 42 43 42 42 41 40 40 40 39 39 38 35 30 27 26 26 27 30 33 36 41 44 48 54 59 64 68 71 73 76 80 84 89 93 95 99 104 107 109 110 109 109 111 113 114 114 112 108 104 102 100 98 96 93 90 87 84 81 78 75 75 76 74 73 72 72 70 67 64 61 58 56 56 56 56 56 55 53 51 48
38 37 34 33 35 38 40 40 41 42 43 43 42 41 40 39 38 37 36 33 28 24 24 24 24 27 30 33 36 40 44 49 55 59 64 67 69 71 75 79 84 88 90 93 99 103 106 108 108 108 110 113 114 113 112 109 106 105 102 99 96 93 91 89 86 84 80 78 79 78 76 75 75 73 70 66 64 62 59 58 58 57 57 57 56 54 51 48
38 38 36 34 36 38 39 39 40 41 43 44 44 44 43 41 38 35 34 32 28 23 22 22 22 24 28 30 33 36 40 45 50 54 59 63 66 67 70 74 79 83 86 89 93 99 103 106 107 107 109 113 113 113 112 110 109 108 103 99 96 93 91 89 87 84 82 81 81 79 77 78 77 73 69 66 64 62 60 59 58 57 58 58 57 55 52 49
Wind_Direction
253 253 254 254 255 256 257 258 259 259 259 260 260 260 261 261 260 259 259 260 260 259 257 253 249 245 244 245 243 239 235 234 237 238 237 233 229 233 233 233 235 236 237 238 238 239 239 240 240 241 241 242 242 243 244 245 247 248 250 251 252 253 254 256 258 261 262 265 267 269 272 275 277 279 282 284 287 291 294 299 301 305 308 309 310 312 316 322
254 255 255 255 256 257 257 258 259 260 260 260 259 259 260 260 260 259 258 258 259 259 258 256 252 248 246 245 245 243 240 238 238 238 237 236 234 236 237 235 236 238 238 239 240 240 240 241 241 241 242 243 244 244 244 245 246 248 250 250 251 252 254 255 258 260 262 264 267 270 273 275 277 279 282 284 287 290 293 297 299 303 305 307 308 310 316 324
256 256 256 257 257 258 258 259 260 260 261 261 260 259 258 258 259 259 258 257 257 257 258 257 255 251 248 246 245 244 244 243 241 238 236 237 238 239 239 236 237 239 239 239 240 240 241 242 242 242 243 244 244 245 246 247 248 249 250 251 252 252 254 256 258 260 262 263 266 269 272 274 277 279 281 284 286 289 292 295 298 301 303 306 307 310 318 324
257 257 258 258 258 259 259 260 260 261 261 261 260 260 259 258 258 258 258 257 256 256 256 257 256 254 250 248 247 244 244 245 244 241 236 234 238 241 241 238 237 241 241 240 240 241 241 241 243 243 244 244 245 246 247 248 250 251 252 253 253 253 254 256 257 259 262 264 266 268 270 273 275 278 280 282 285 288 291 294 297 300 302 304 305 313 322 323
258 259 259 259 259 260 260 261 261 261 261 261 261 260 259 258 257 257 257 257 256 256 255 254 255 254 252 249 248 246 244 244 246 244 239 235 236 240 242 241 239 241 244 244 242 242 242 241 242 243 244 245 246 247 248 249 250 252 253 254 255 255 255 257 258 260 262 264 266 267 269 272 274 276 278 281 284 287 290 293 295 297 299 301 305 316 322 319
259 260 260 260 261 261 261 261 262 262 262 262 262 261 260 258 257 256 256 255 255 255 255 253 253 253 253 250 248 247 245 244 245 244 243 239 237 240 240 241 240 239 242 246 246 244 243 243 243 244 244 245 246 247 248 249 250 252 253 255 257 257 257 259 260 261 262 264 266 267 269 271 273 275 277 280 283 286 288 290 292 294 295 298 307 318 318 316
260 261 261 261 261 262 262 262 262 262 262 262 262 261 260 259 258 257 255 254 254 254 254 253 252 251 252 251 249 247 246 246 244 242 245 243 239 240 240 238 240 240 240 244 248 247 244 243 243 243 244 244 246 247 247 248 250 251 253 255 257 258 259 260 261 262 263 264 266 267 269 271 272 274 276 279 281 283 285 286 288 289 293 299 310 317 314 314
262 262 262 262 262 262 262 263 263 263 263 262 262 261 261 260 259 257 256 255 253 252 252 252 251 250 250 250 249 248 247 247 244 241 244 244 240 241 242 238 237 240 240 241 245 248 247 242 241 243 244 245 246 247 247 247 248 249 251 253 255 257 258 258 259 260 262 263 265 266 267 268 270 272 274 276 278 279 280 282 283 285 291 301 311 313 312 314
264 264 264 264 264 264 264 264 264 264 263 263 263 262 262 261 260 258 257 256 254 253 251 250 250 249 249 248 248 248 247 246 244 242 243 243 240 240 243 241 237 238 241 241 242 246 248 243 241 244 246 246 246 247 246 245 247 247 248 249 251 253 254 256 257 258 260 261 262 263 263 264 265 267 269 271 273 274 275 276 278 282 290 301 306 307 310 315
264 264 264 264 264 264 264 264 264 263 263 263 263 262 262 261 260 259 258 256 255 254 253 251 249 248 248 247 247 247 247 246 245 243 243 243 240 238 242 243 239 236 239 242 242 242 246 247 248 250 249 244 241 243 245 243 244 244 244 246 247 250 252 254 255 256 256 256 257 258 259 260 261 263 265 266 267 268 269 270 273 278 287 294 298 302 307 315
264 264 264 264 263 263 263 263 263 263 262 262 262 262 261 260 260 259 258 257 255 254 253 252 250 249 247 247 245 245 246 246 245 244 243 243 241 237 239 243 242 238 237 240 242 241 243 247 250 251 250 246 241 241 243 240 239 240 238 239 240 243 246 249 251 251 251 253 254 255 256 257 258 260 260 260 261 262 261 262 266 271 280 288 294 300 306 315
264 263 263 263 263 262 262 262 262 261 261 261 260 260 260 259 259 258 257 256 255 254 253 252 251 250 249 247 245 245 245 245 244 243 242 242 242 239 237 240 243 241 238 237 240 241 241 243 245 248 249 250 246 243 241 233 234 239 236 232 232 232 235 240 244 246 247 249 251 252 255 256 255 253 251 251 252 252 252 255 259 265 276 286 294 299 305 317
264 263 263 263 263 262 262 261 261 260 260 260 259 259 259 258 258 257 256 255 255 254 254 253 252 251 250 248 246 245 245 244 243 242 243 243 243 240 237 237 240 241 239 236 237 239 240 241 241 242 246 249 250 246 240 230 231 239 238 234 233 230 228 230 236 240 242 243 244 249 251 249 245 243 241 241 242 241 242 246 254 266 277 287 294 298 307 319
265 264 264 264 263 263 262 262 261 260 260 259 259 258 258 257 257 256 255 254 254 254 253 252 252 251 250 249 247 246 245 243 243 243 243 243 242 240 237 235 237 238 239 237 236 237 239 240 239 240 242 245 247 247 243 233 230 236 238 236 236 234 228 229 234 237 239 240 239 241 241 241 239 236 232 229 231 230 229 239 254 267 278 287 293 298 310 323
266 265 265 264 264 263 263 262 261 261 260 259 259 258 258 257 257 256 255 253 253 253 252 252 251 251 251 249 247 246 246 245 243 243 242 241 240 240 238 236 235 237 238 237 236 236 237 238 239 238 238 240 244 247 247 240 233 234 236 235 235 235 229 230 237 237 239 242 242 239 234 237 235 227 220 214 216 220 223 238 253 265 277 286 293 301 314 325
266 265 265 264 264 264 263 263 262 261 260 260 259 258 258 257 257 256 255 253 252 252 252 251 251 251 250 250 248 246 246 246 244 243 242 240 239 239 237 236 235 236 236 236 235 235 236 237 238 236 236 238 241 245 246 245 240 236 235 234 235 235 227 225 234 237 239 241 240 239 234 231 229 222 211 200 208 219 226 240 251 263 276 285 294 305 316 323
267 266 265 265 264 264 263 263 262 262 261 260 259 258 257 257 256 255 254 253 252 252 252 251 250 250 250 250 249 246 245 246 245 243 242 240 239 237 236 236 235 234 234 235 235 236 237 237 237 237 236 235 237 241 244 245 241 235 233 231 232 234 228 224 230 232 236 240 239 238 236 229 225 225 216 205 213 226 234 245 254 264 274 283 294 306 313 320
268 267 266 265 264 264 263 263 262 262 261 260 259 258 257 257 256 255 254 253 252 251 251 251 250 250 250 249 249 247 245 245 245 244 242 241 239 236 234 234 234 233 233 235 235 235 237 237 236 236 237 236 236 236 238 240 239 234 232 231 231 234 232 228 229 229 232 240 241 236 232 226 226 231 228 220 224 236 243 249 257 264 272 281 291 301 308 316
268 268 267 266 265 264 264 263 262 261 261 260 259 258 257 256 256 255 254 252 252 251 250 250 250 250 249 249 248 247 246 244 244 244 244 242 240 237 234 232 233 233 232 234 235 234 234 235 235 236 238 237 233 231 232 237 240 237 234 234 233 234 235 232 233 231 232 238 240 236 230 224 228 234 234 232 234 241 246 252 258 263 269 276 283 293 303 312
269 268 267 266 266 265 264 263 263 262 261 260 259 258 257 256 256 255 254 252 251 251 250 249 249 249 249 248 247 246 246 244 243 244 244 244 242 240 236 233 231 232 232 233 234 233 232 233 235 237 237 235 232 231 234 238 241 240 238 237 235 234 234 233 233 232 231 235 237 236 231 224 222 227 230 232 237 242 246 253 258 261 265 272 279 286 298 306
271 270 268 267 266 265 264 263 263 262 261 261 260 259 258 257 256 255 254 252 250 250 250 249 248 248 248 248 247 246 245 245 243 242 243 244 244 242 239 236 232 232 232 232 232 231 231 232 236 238 236 234 233 233 234 237 240 241 240 239 237 235 233 232 232 232 230 231 234 233 231 227 222 222 227 230 236 242 247 252 257 260 264 270 276 282 292 300
272 271 270 268 267 266 265 263 262 261 260 260 259 259 259 258 257 256 255 253 250 249 249 248 247 247 247 247 247 245 244 244 243 242 242 243 244 243 241 238 234 233 232 231 231 231 231 233 237 236 234 233 233 233 233 235 237 239 240 240 239 237 234 231 230 231 229 230 232 231 229 231 226 222 227 232 237 244 247 251 256 258 262 267 271 277 284 290
273 272 271 270 268 267 266 264 263 261 260 259 258 258 258 258 258 257 256 255 253 249 248 248 247 246 245 245 245 245 244 243 243 242 241 241 243 243 242 240 237 234 233 231 231 231 231 234 237 234 231 232 232 232 232 233 235 237 238 240 239 237 235 230 227 229 230 231 234 232 230 235 233 225 229 233 237 242 245 249 253 254 259 263 267 271 275 280
275 273 272 271 269 268 267 265 264 263 261 260 259 257 257 256 257 257 256 256 255 252 249 248 248 246 245 244 244 244 244 244 242 241 241 240 240 241 242 240 238 236 234 231 230 229 229 234 237 234 231 232 232 231 231 232 234 235 236 238 238 237 235 231 227 227 229 232 234 233 232 236 236 229 230 232 234 239 243 247 251 253 257 261 263 266 269 272
276 275 274 273 271 270 268 267 266 264 263 261 260 258 257 256 256 256 255 255 256 255 252 250 248 247 246 244 243 243 243 244 243 241 240 240 239 238 239 239 238 237 235 232 229 227 229 234 236 233 231 232 232 232 232 232 232 232 234 235 237 237 235 232 228 226 228 232 234 233 231 234 236 234 233 233 234 238 242 246 250 253 255 257 260 263 265 267
277 276 275 274 273 272 271 270 268 267 265 263 261 260 258 257 256 255 255 254 254 254 254 252 250 248 246 245 244 243 242 242 242 241 240 239 238 237 236 237 237 237 235 232 229 226 228 234 234 232 231 231 231 231 232 233 232 232 232 232 234 236 235 233 230 227 228 231 233 232 232 234 236 237 237 236 237 240 243 247 251 252 252 254 257 259 262 265
277 276 276 275 274 274 273 272 271 270 268 267 265 262 260 259 257 256 255 254 253 253 252 252 251 249 247 245 244 244 243 241 241 241 240 239 239 237 235 235 236 236 235 233 229 226 228 233 233 232 232 231 231 232 233 233 232 232 231 231 235 238 237 235 231 229 228 230 232 233 234 235 236 238 239 238 238 240 243 248 249 249 250 251 253 256 259 262
279 278 276 275 275 274 274 274 273 273 272 271 269 266 263 260 258 257 255 254 253 252 251 250 249 249 247 245 243 243 243 242 241 240 239 239 239 237 235 234 234 235 236 233 229 227 228 231 231 231 230 229 230 231 232 231 230 232 231 230 234 236 236 235 233 231 230 231 234 234 235 237 237 239 241 241 240 240 239 241 244 245 248 249 251 255 258 261
281 279 277 276 275 275 274 274 274 274 273 272 271 269 266 263 260 257 255 254 253 252 251 250 248 247 246 244 243 242 242 242 242 240 238 237 238 237 235 233 232 232 234 233 230 227 228 229 228 228 228 228 228 230 230 229 230 233 232 229 231 234 234 234 232 231 232 233 234 235 235 237 239 242 244 245 243 238 235 238 242 244 247 249 251 254 257 259
282 280 279 278 277 276 275 274 274 274 273 272 271 269 267 265 262 259 256 254 252 250 250 250 248 246 244 243 242 241 240 241 241 241 239 236 236 237 235 233 232 231 232 232 230 228 229 228 228 227 227 227 228 229 229 228 230 233 232 230 231 233 234 234 232 232 232 232 234 235 234 235 238 243 245 244 240 237 237 242 245 246 248 250 251 253 255 257
284 282 281 280 279 278 277 276 275 274 273 272 271 269 268 265 263 260 257 254 252 250 248 248 248 247 244 242 241 239 239 239 240 240 239 237 235 235 235 234 232 230 230 230 229 229 230 229 228 227 227 227 228 229 229 228 230 233 232 231 232 234 235 234 233 233 233 231 232 234 233 232 238 241 239 239 239 239 241 242 244 245 247 249 251 252 254 256
287 286 284 282 281 280 280 280 278 276 274 273 271 270 268 266 264 261 258 255 253 250 248 247 246 246 245 243 241 238 237 237 238 238 238 237 236 235 235 234 233 231 230 230 228 228 229 229 228 227 227 227 228 229 229 229 231 234 234 233 233 235 235 234 234 234 232 229 231 234 234 232 235 237 235 237 240 241 241 241 242 243 244 247 249 251 254 255
290 288 287 286 285 285 284 283 281 279 277 275 273 270 268 266 264 262 259 257 254 250 248 247 245 245 244 243 241 239 236 235 236 236 236 236 236 235 234 233 233 231 230 229 228 227 228 228 227 227 226 227 228 229 230 230 232 234 235 234 235 236 236 235 234 233 229 226 228 232 231 228 232 236 234 235 238 239 240 241 241 242 243 245 248 250 254 256
292 291 290 290 289 289 288 286 284 282 279 277 274 271 269 266 264 261 259 257 254 251 248 246 245 244 243 242 241 240 237 235 234 235 235 235 234 234 234 233 232 231 229 229 228 226 226 227 227 227 227 227 227 227 228 229 230 231 232 232 232 233 234 233 232 230 226 224 225 228 228 224 230 235 233 232 236 237 239 240 241 242 243 244 247 249 252 255
294 294 293 293 293 293 291 290 287 285 282 278 275 272 269 267 264 261 259 257 255 252 248 245 243 243 242 241 240 239 238 235 233 233 233 234 233 232 233 233 232 230 229 228 228 226 225 225 225 227 227 227 226 226 226 227 228 229 230 230 229 230 232 231 228 227 224 222 222 225 223 220 228 232 231 232 236 237 238 240 241 242 242 243 244 245 246 249
298 297 297 297 297 296 294 291 289 285 282 279 276 273 270 268 265 262 259 256 254 251 248 245 242 241 241 240 238 238 238 236 234 232 231 232 232 231 231 232 231 230 228 227 228 227 225 223 223 225 226 226 226 226 227 227 227 228 229 229 229 230 230 229 226 225 224 223 223 224 220 219 227 232 232 234 236 236 238 239 240 241 242 242 242 242 243 245
301 301 300 300 300 298 296 293 290 285 281 278 276 274 272 270 267 263 260 257 253 251 248 245 242 239 239 239 238 236 236 236 235 232 230 230 231 231 230 230 231 230 228 227 226 226 225 223 222 223 224 225 225 226 226 226 226 227 228 227 227 228 229 228 226 225 223 223 225 226 222 223 231 235 235 236 237 237 237 238 239 241 241 240 240 241 242 244
304 304 303 303 302 300 298 295 291 287 284 281 278 276 275 272 268 265 262 258 255 251 248 246 243 239 237 237 237 236 235 235 234 233 230 228 229 230 229 228 229 229 228 227 225 225 224 222 222 222 222 223 224 225 226 226 226 226 226 225 225 227 228 227 227 226 224 223 225 227 225 225 233 237 236 236 237 236 236 237 238 240 240 240 239 240 241 243
307 307 306 305 303 301 298 295 292 289 286 284 282 279 277 274 270 268 265 262 258 253 249 246 243 240 238 236 235 235 234 233 233 233 231 228 227 228 228 227 228 228 228 226 225 223 222 222 222 222 221 222 223 224 225 226 226 226 226 225 226 226 226 225 224 223 221 219 222 226 224 223 232 236 235 235 236 236 236 236 238 240 240 240 240 240 240 241
311 309 307 306 304 301 299 297 294 292 290 288 285 282 279 276 272 270 267 264 261 257 252 247 243 240 239 236 234 234 233 232 232 232 231 229 226 226 227 226 226 226 227 226 224 222 220 220 221 222 221 221 222 224 224 224 225 225 225 226 227 227 227 226 224 222 219 217 218 223 222 220 228 234 233 233 235 236 236 236 237 240 241 241 241 240 240 240
314 312 309 307 306 304 303 302 300 298 297 294 291 287 284 280 275 271 268 265 262 259 255 250 245 241 239 238 236 234 233 232 232 231 231 230 226 224 225 225 225 225 226 225 224 222 219 218 220 221 221 220 221 222 223 223 223 224 223 224 225 225 226 226 224 223 222 218 219 223 222 220 226 233 233 231 233 234 236 236 237 239 241 241 241 241 241 242
317 314 311 310 310 311 310 308 306 305 304 301 298 294 289 285 280 275 271 267 263 260 257 254 250 245 240 238 237 236 233 232 231 231 230 230 228 225 223 224 224 224 224 225 224 222 219 216 218 220 220 220 220 221 222 222 223 224 222 222 222 223 223 224 222 222 222 219 220 223 223 222 226 231 231 230 231 233 235 237 238 239 240 241 242 242 243 244
318 316 314 313 314 315 315 313 311 311 310 307 303 299 295 291 286 281 276 271 266 262 258 256 253 248 242 238 236 235 233 232 231 231 230 229 229 226 223 223 224 223 223 224 223 222 219 215 216 219 219 219 220 220 221 221 221 222 222 221 222 222 222 222 220 220 220 217 217 220 222 224 226 229 232 232 231 233 235 237 239 239 240 241 241 243 244 246
319 318 319 318 318 320 320 318 316 316 315 312 309 305 301 296 292 288 283 278 271 265 260 256 253 249 244 239 235 234 233 231 230 230 229 228 228 227 224 222 222 223 222 223 222 221 219 216 214 216 218 218 218 219 219 219 219 220 221 221 222 222 221 220 219 219 218 215 216 217 219 224 227 230 234 235 234 234 235 235 237 237 238 238 239 241 243 245
319 319 323 323 322 323 323 322 321 319 318 316 313 310 305 301 297 293 289 284 278 272 265 259 252 247 244 240 236 233 232 231 230 229 229 228 227 227 225 222 221 222 222 222 221 221 219 216 213 215 216 217 218 219 219 219 219 219 220 220 221 221 221 220 219 219 218 216 216 216 220 226 227 229 233 235 234 234 233 234 235 237 238 238 239 241 242 244
321 322 325 326 324 325 327 327 326 324 322 319 316 313 309 304 299 295 290 286 282 277 271 263 254 247 243 240 237 233 231 230 230 229 228 227 225 225 225 223 221 220 221 221 220 219 219 217 213 214 216 216 218 219 219 219 219 219 219 220 220 221 221 220 219 218 217 218 217 216 222 227 227 228 231 232 232 231 231 233 234 236 237 239 241 242 243 245
323 325 327 326 324 326 328 330 329 328 326 323 320 316 312 307 302 297 292 288 284 280 274 266 257 249 243 240 238 234 231 229 229 229 228 227 225 224 224 223 221 220 219 220 219 218 218 217 214 213 215 215 217 219 219 219 219 219 219 219 220 220 221 220 220 217 217 217 216 218 224 227 226 227 229 230 230 228 229 230 232 234 237 240 243 245 245 246
325 327 327 326 325 327 330 332 331 330 329 327 325 321 317 312 307 302 297 293 289 284 276 267 258 250 244 240 238 235 231 228 228 229 229 227 226 224 223 223 222 220 218 218 218 217 217 217 214 213 214 215 216 218 218 218 218 218 218 219 220 220 220 220 219 218 217 216 215 219 225 226 225 227 228 229 229 228 227 228 230 233 237 240 244 246 246 247
327 328 328 326 327 329 333 334 333 332 332 332 330 327 321 316 311 307 302 297 294 288 279 268 259 251 244 240 237 234 231 228 227 227 228 227 226 224 222 222 221 220 218 216 217 216 216 216 215 213 213 214 215 216 218 217 217 217 217 218 219 219 220 219 219 218 217 215 215 220 223 224 225 226 227 228 229 228 228 229 229 232 236 239 242 244 245 247
327 329 329 328 329 333 335 335 335 335 335 336 334 331 326 321 316 312 306 301 297 292 282 271 260 253 246 241 238 234 230 228 227 226 227 227 225 224 222 221 221 220 218 215 215 215 214 215 215 213 212 213 214 215 216 216 216 216 216 216 217 218 218 218 218 217 216 215 216 220 222 223 225 227 228 229 230 229 229 230 231 233 236 239 242 243 245 246
326 328 330 331 334 336 335 334 336 338 339 340 339 336 333 327 321 318 313 307 302 296 287 274 262 254 249 243 238 234 230 227 226 225 226 226 225 223 222 221 220 220 218 215 213 212 212 213 214 213 212 213 213 214 215 215 215 216 215 215 215 216 216 216 216 216 216 215 217 219 221 222 224 226 227 229 230 230 230 231 232 234 236 239 241 243 245 246
325 328 332 336 338 337 335 334 338 342 343 344 344 342 339 333 327 324 319 313 308 301 291 278 265 254 249 244 239 234 230 227 225 224 223 225 225 223 221 219 218 218 218 215 211 210 210 212 213 212 211 213 213 213 214 214 215 215 214 214 214 214 215 215 215 215 215 216 218 219 221 222 223 223 225 227 229 230 231 232 233 235 237 239 241 242 244 244
Height
10927 10928 10929 10930 10930 10931 10932 10932 10934 10935 10936 10936 10937 10937 10938 10939 10940 10941 10941 10942 10942 10943 10944 10945 10947 10948 10949 10949 10949 10951 10951 10952 10951 10951 10952 10954 10955 10954 10954 10956 10956 10957 10959 10960 10961 10963 10965 10966 10968 10970 10972 10973 10975 10976 10978 10979 10980 10981 10982 10984 10985 10986 10987 10989 10989 10990 10990 10990 10990 10992 10993 10993 10994 10994 10994 10995 10996 10996 10996 10997 10996 10996 10995 10994 10993 10993 10991 10989
10923 10924 10925 10926 10926 10927 10928 10929 10930 10931 10932 10933 10933 10934 10934 10935 10935 10937 10938 10939 10939 10939 10940 10942 10943 10945 10946 10946 10947 10948 10949 10949 10949 10949 10950 10951 10952 10952 10952 10954 10955 10956 10957 10957 10958 10960 10961 10963 10965 10966 10968 10970 10971 10973 10975 10976 10977 10978 10979 10980 10981 10983 10985 10987 10987 10988 10988 10988 10989 10990 10991 10991 10991 10992 10992 10993 10994 10995 10995 10995 10995 10995 10994 10993 10993 10992 10990 10988
10919 10920 10921 10921 10922 10923 10923 10924 10925 10926 10927 10928 10929 10930 10930 10931 10931 10932 10934 10935 10935 10936 10937 10938 10939 10940 10942 10943 10944 10945 10946 10946 10946 10946 10948 10949 10950 10950 10950 10952 10953 10953 10953 10953 10954 10956 10957 10960 10961 10963 10964 10966 10968 10970 10972 10973 10974 10975 10976 10977 10978 10980 10983 10984 10985 10985 10985 10986 10987 10988 10989 10988 10989 10989 10990 10991 10992 10993 10994 10994 10994 10994 10993 10992 10992 10991 10989 10987
10915 10916 10916 10917 10917 10918 10919 10919 10920 10921 10922 10923 10924 10925 10926 10927 10927 10928 10929 10930 10931 10932 10933 10934 10935 10936 10938 10939 10940 10941 10943 10943 10943 10943 10945 10947 10947 10947 10947 10949 10950 10950 10950 10951 10951 10952 10954 10957 10958 10959 10961 10963 10965 10967 10969 10970 10971 10972 10973 10974 10975 10977 10980 10981 10982 10983 10983 10983 10984 10986 10986 10987 10987 10988 10988 10990 10991 10992 10993 10993 10993 10993 10992 10992 10991 10989 10988 10987
10910 10911 10911 10912 10912 10913 10913 10914 10915 10916 10917 10918 10919 10920 10921 10922 10923 10923 10924 10925 10927 10928 10929 10930 10930 10931 10933 10934 10936 10937 10939 10940 10939 10939 10941 10944 10945 10944 10945 10946 10948 10948 10948 10948 10949 10950 10951 10953 10954 10956 10958 10960 10962 10964 10965 10967 10967 10969 10970 10970 10971 10974 10977 10978 10979 10980 10981 10981 10981 10983 10984 10985 10985 10986 10987 10988 10989 10990 10991 10991 10991 10991 10991 10990 10990 10988 10987 10987
10905 10906 10906 10906 10907 10907 10908 10908 10909 10910 10911 10912 10913 10914 10915 10916 10917 10918 10919 10920 10922 10923 10924 10925 10926 10927 10928 10930 10931 10933 10935 10936 10935 10935 10938 10940 10941 10941 10941 10943 10944 10945 10946 10946 10946 10947 10949 10950 10951 10953 10955 10956 10958 10960 10962 10963 10964 10966 10967 10967 10968 10970 10973 10975 10976 10977 10978 10979 10979 10980 10981 10982 10983 10983 10985 10986 10987 10988 10989 10989 10990 10990 10990 10989 10988 10987 10987 10987
10899 10900 10900 10900 10901 10901 10902 10902 10903 10904 10905 10906 10907 10908 10909 10910 10911 10912 10914 10914 10916 10918 10919 10919 10920 10922 10923 10925 10926 10928 10930 10930 10931 10933 10934 10935 10937 10937 10938 10940 10941 10942 10943 10944 10944 10944 10946 10947 10948 10950 10951 10953 10956 10957 10958 10960 10961 10963 10964 10965 10965 10967 10970 10971 10973 10974 10975 10976 10976 10977 10979 10980 10980 10981 10983 10984 10985 10986 10987 10987 10988 10988 10988 10987 10987 10987 10987 10986
10893 10893 10894 10894 10894 10895 10896 10896 10897 10898 10899 10900 10901 10901 10902 10904 10905 10906 10908 10909 10910 10912 10913 10914 10915 10917 10918 10920 10921 10923 10925 10925 10926 10929 10930 10930 10933 10934 10934 10936 10939 10939 10940 10941 10942 10942 10942 10944 10946 10948 10949 10952 10954 10954 10954 10956 10958 10960 10961 10962 10962 10964 10966 10967 10969 10970 10971 10972 10973 10975 10976 10977 10978 10978 10980 10982 10983 10984 10985 10985 10986 10986 10986 10986 10986 10986 10986 10985
10886 10887 10887 10888 10888 10888 10889 10890 10891 10892 10892 10893 10894 10895 10896 10897 10898 10899 10901 10902 10904 10905 10907 10908 10909 10911 10912 10914 10915 10917 10919 10921 10922 10924 10925 10925 10928 10930 10930 10932 10935 10936 10937 10938 10939 10939 10939 10941 10945 10946 10948 10951 10951 10950 10951 10954 10956 10958 10958 10958 10959 10960 10961 10962 10965 10967 10968 10969 10970 10971 10972 10973 10974 10976 10978 10979 10980 10982 10982 10983 10984 10985 10985 10985 10985 10986 10986 10985
10879 10880 10881 10881 10881 10882 10882 10883 10884 10885 10885 10886 10888 10888 10889 10890 10891 10892 10894 10896 10897 10899 10900 10901 10903 10904 10906 10907 10909 10911 10914 10916 10917 10919 10920 10921 10923 10926 10927 10927 10930 10933 10934 10935 10936 10936 10937 10939 10943 10944 10946 10947 10948 10948 10949 10952 10954 10955 10955 10956 10957 10958 10958 10959 10961 10964 10965 10965 10966 10967 10968 10970 10971 10973 10975 10977 10978 10979 10980 10981 10982 10983 10984 10984 10985 10985 10985 10984
10872 10873 10873 10874 10874 10874 10875 10876 10877 10877 10878 10879 10881 10881 10881 10883 10884 10885 10887 10888 10890 10892 10893 10895 10896 10897 10899 10900 10902 10906 10909 10910 10912 10913 10914 10916 10918 10921 10923 10923 10925 10928 10931 10931 10931 10933 10935 10938 10940 10941 10942 10943 10945 10946 10947 10951 10953 10952 10953 10954 10954 10955 10956 10957 10958 10960 10961 10962 10963 10964 10965 10967 10969 10970 10973 10974 10976 10977 10978 10979 10980 10981 10983 10984 10984 10985 10984 10984
10865 10865 10865 10866 10866 10866 10867 10868 10868 10869 10870 10871 10873 10873 10873 10875 10876 10877 10879 10881 10883 10885 10886 10887 10888 10889 10891 10891 10896 10901 10903 10903 10905 10907 10909 10911 10913 10916 10919 10919 10920 10923 10926 10927 10928 10931 10933 10935 10937 10938 10938 10940 10942 10943 10946 10950 10950 10949 10951 10951 10952 10953 10953 10955 10955 10957 10958 10960 10961 10962 10964 10965 10966 10968 10970 10972 10973 10975 10976 10977 10979 10980 10982 10983 10983 10984 10984 10983
10858 10858 10858 10858 10858 10858 10858 10859 10860 10861 10861 10863 10865 10865 10865 10866 10867 10869 10870 10873 10876 10878 10878 10880 10881 10882 10882 10883 10891 10895 10895 10896 10899 10903 10905 10906 10907 10909 10912 10914 10915 10917 10919 10922 10925 10927 10929 10931 10933 10934 10936 10937 10938 10940 10943 10948 10949 10948 10949 10950 10950 10951 10952 10953 10953 10955 10956 10958 10959 10961 10962 10963 10964 10965 10967 10969 10971 10973 10974 10976 10978 10980 10981 10982 10983 10983 10983 10982
10851 10851 10851 10850 10850 10850 10851 10851 10852 10852 10853 10855 10856 10857 10857 10857 10858 10860 10861 10865 10868 10869 10870 10872 10873 10874 10873 10876 10884 10888 10887 10890 10894 10897 10899 10899 10899 10901 10904 10907 10909 10911 10914 10917 10921 10923 10925 10927 10929 10931 10933 10933 10934 10936 10939 10945 10947 10946 10946 10948 10948 10948 10951 10952 10952 10953 10954 10956 10958 10959 10961 10961 10962 10963 10965 10967 10968 10971 10973 10975 10977 10979 10980 10981 10982 10982 10982 10982
10842 10843 10843 10842 10842 10841 10842 10843 10843 10844 10845 10846 10848 10849 10848 10849 10850 10850 10852 10857 10860 10860 10861 10864 10865 10865 10866 10868 10876 10880 10880 10884 10888 10889 10889 10890 10892 10894 10897 10900 10903 10906 10909 10912 10916 10918 10920 10922 10925 10927 10928 10929 10932 10934 10935 10940 10943 10944 10944 10945 10945 10946 10950 10952 10951 10952 10953 10954 10956 10958 10959 10960 10961 10962 10963 10965 10967 10969 10972 10974 10976 10978 10979 10980 10981 10981 10981 10981
10833 10833 10834 10834 10833 10832 10833 10833 10833 10834 10835 10836 10838 10839 10839 10839 10840 10840 10843 10849 10852 10852 10853 10855 10856 10856 10858 10860 10867 10873 10875 10875 10878 10879 10880 10882 10884 10887 10891 10894 10897 10900 10902 10906 10910 10913 10916 10918 10919 10922 10924 10928 10930 10930 10931 10935 10938 10940 10940 10941 10942 10943 10948 10950 10950 10951 10952 10953 10954 10956 10958 10959 10960 10961 10962 10963 10965 10968 10971 10974 10976 10977 10978 10979 10980 10980 10980 10980
10823 10823 10824 10824 10823 10822 10822 10823 10823 10823 10824 10825 10827 10829 10829 10828 10829 10829 10833 10840 10843 10843 10845 10846 10847 10848 10850 10853 10858 10865 10867 10866 10867 10870 10871 10872 10876 10880 10883 10886 10889 10893 10896 10901 10906 10909 10911 10913 10914 10917 10921 10924 10925 10926 10928 10929 10930 10934 10935 10936 10938 10940 10946 10948 10948 10950 10950 10950 10952 10955 10957 10958 10959 10959 10960 10962 10964 10967 10969 10972 10974 10976 10977 10978 10979 10979 10979 10979
10813 10813 10813 10813 10813 10812 10812 10812 10812 10812 10813 10813 10815 10817 10817 10817 10817 10817 10822 10830 10833 10834 10835 10836 10838 10839 10842 10846 10849 10854 10858 10857 10857 10859 10862 10864 10867 10871 10876 10878 10882 10888 10892 10897 10900 10903 10905 10907 10909 10914 10918 10921 10922 10922 10922 10919 10922 10928 10930 10933 10936 10939 10943 10945 10946 10948 10949 10948 10951 10954 10956 10957 10958 10958 10960 10962 10964 10966 10968 10970 10972 10974 10976 10977 10978 10978 10978 10978
10802 10801 10802 10802 10801 10801 10801 10800 10800 10801 10801 10801 10802 10804 10804 10805 10805 10804 10810 10819 10821 10822 10824 10827 10828 10830 10833 10836 10840 10843 10846 10848 10848 10849 10853 10856 10857 10863 10868 10872 10877 10882 10887 10891 10893 10895 10898 10900 10905 10911 10913 10912 10912 10912 10912 10913 10917 10924 10927 10931 10936 10938 10941 10943 10945 10947 10948 10948 10949 10952 10954 10956 10957 10958 10960 10962 10963 10964 10965 10968 10970 10973 10975 10976 10977 10978 10977 10977
10792 10790 10790 10791 10790 10790 10790 10789 10789 10789 10789 10789 10789 10790 10791 10791 10792 10791 10795 10805 10810 10810 10812 10816 10818 10819 10823 10825 10829 10832 10834 10836 10840 10842 10845 10846 10848 10855 10861 10867 10872 10876 10881 10883 10884 10888 10892 10897 10903 10903 10899 10899 10903 10908 10910 10912 10915 10919 10924 10928 10932 10935 10938 10940 10942 10945 10946 10946 10947 10949 10953 10955 10957 10958 10959 10961 10962 10962 10963 10966 10968 10971 10973 10975 10976 10977 10977 10976
10782 10780 10779 10779 10779 10779 10778 10777 10777 10777 10777 10777 10776 10777 10777 10777 10779 10778 10781 10789 10796 10798 10799 10804 10807 10808 10811 10814 10817 10821 10822 10824 10829 10834 10837 10836 10839 10847 10854 10861 10867 10872 10874 10874 10877 10882 10888 10897 10896 10889 10888 10895 10901 10906 10909 10910 10911 10915 10920 10923 10927 10931 10933 10936 10940 10942 10944 10943 10944 10947 10950 10952 10955 10957 10958 10959 10959 10960 10962 10965 10966 10969 10971 10973 10974 10975 10976 10976
10772 10769 10767 10767 10768 10767 10766 10765 10764 10764 10765 10765 10765 10765 10764 10764 10765 10766 10768 10772 10780 10787 10786 10789 10794 10796 10799 10802 10804 10808 10811 10813 10816 10824 10830 10829 10832 10838 10845 10853 10860 10864 10864 10867 10875 10879 10887 10893 10881 10874 10883 10892 10896 10901 10904 10905 10907 10911 10915 10918 10922 10924 10927 10932 10936 10937 10939 10940 10940 10944 10947 10948 10953 10956 10956 10957 10958 10959 10961 10963 10964 10967 10969 10971 10972 10973 10975 10975
10760 10758 10755 10754 10754 10753 10752 10751 10750 10751 10752 10753 10754 10753 10753 10752 10751 10753 10756 10756 10763 10774 10775 10775 10779 10783 10787 10790 10791 10794 10798 10801 10806 10814 10819 10821 10825 10829 10836 10845 10850 10853 10856 10864 10871 10874 10883 10878 10860 10865 10882 10886 10889 10895 10897 10899 10903 10908 10910 10912 10914 10916 10921 10926 10930 10933 10935 10936 10937 10942 10944 10945 10950 10955 10955 10955 10957 10958 10959 10961 10962 10965 10967 10969 10970 10971 10973 10974
10747 10746 10742 10740 10739 10738 10738 10737 10736 10736 10738 10739 10740 10740 10741 10740 10740 10741 10744 10744 10746 10755 10762 10762 10764 10769 10774 10777 10780 10781 10784 10788 10794 10801 10806 10810 10815 10820 10828 10834 10838 10844 10851 10858 10861 10866 10872 10859 10849 10867 10880 10878 10883 10888 10890 10896 10900 10903 10905 10905 10905 10907 10912 10918 10925 10930 10931 10932 10935 10939 10941 10942 10947 10951 10951 10952 10955 10956 10957 10958 10959 10963 10965 10966 10968 10969 10971 10972
10733 10732 10729 10725 10724 10723 10723 10722 10720 10720 10722 10723 10724 10726 10728 10727 10728 10729 10731 10733 10733 10737 10744 10747 10751 10757 10761 10765 10767 10768 10771 10774 10779 10788 10793 10797 10804 10811 10817 10821 10827 10835 10840 10844 10849 10858 10860 10847 10847 10866 10871 10870 10877 10881 10886 10890 10892 10897 10900 10897 10895 10898 10904 10913 10922 10927 10927 10928 10932 10936 10939 10940 10943 10946 10948 10950 10953 10954 10955 10955 10957 10961 10963 10964 10965 10967 10969 10970
10720 10718 10715 10712 10709 10708 10707 10706 10704 10703 10704 10705 10708 10711 10713 10713 10714 10715 10718 10721 10721 10722 10725 10731 10737 10743 10749 10753 10753 10755 10758 10760 10763 10773 10781 10784 10791 10800 10805 10810 10817 10822 10824 10829 10837 10848 10849 10839 10844 10859 10862 10864 10870 10875 10881 10882 10886 10892 10890 10885 10885 10891 10900 10908 10916 10922 10925 10925 10928 10933 10936 10938 10940 10942 10945 10949 10951 10952 10953 10954 10956 10958 10960 10962 10964 10965 10967 10968
10708 10705 10701 10698 10696 10694 10692 10689 10687 10687 10686 10687 10690 10694 10696 10697 10698 10700 10704 10706 10707 10707 10710 10716 10721 10727 10735 10740 10741 10741 10741 10744 10750 10757 10767 10772 10777 10786 10795 10800 10805 10808 10810 10816 10828 10842 10841 10833 10841 10852 10854 10858 10865 10871 10872 10872 10879 10879 10874 10878 10883 10888 10895 10903 10910 10918 10921 10921 10925 10932 10934 10935 10938 10939 10941 10946 10948 10951 10952 10952 10954 10955 10957 10959 10961 10963 10965 10966
10695 10691 10687 10684 10682 10681 10678 10674 10671 10670 10669 10670 10672 10674 10677 10680 10681 10683 10686 10689 10691 10691 10694 10700 10704 10710 10719 10722 10726 10727 10725 10730 10737 10742 10753 10761 10763 10772 10782 10786 10792 10795 10795 10804 10822 10832 10828 10825 10835 10841 10843 10852 10859 10860 10857 10863 10870 10864 10865 10877 10880 10881 10888 10896 10906 10913 10916 10918 10925 10931 10932 10934 10936 10935 10938 10943 10947 10949 10949 10949 10950 10952 10954 10957 10959 10961 10963 10965
10682 10678 10673 10670 10669 10667 10664 10661 10657 10653 10653 10653 10653 10654 10657 10660 10663 10666 10667 10671 10674 10674 10677 10683 10687 10694 10700 10702 10709 10713 10712 10716 10721 10726 10739 10748 10749 10756 10765 10770 10776 10781 10783 10794 10810 10817 10814 10816 10822 10826 10835 10846 10848 10845 10846 10858 10862 10854 10861 10873 10872 10875 10883 10891 10902 10909 10911 10918 10925 10928 10930 10932 10932 10931 10936 10942 10944 10944 10944 10946 10948 10950 10953 10955 10957 10959 10961 10962
10669 10664 10660 10657 10655 10652 10650 10648 10644 10640 10637 10635 10635 10636 10637 10640 10644 10646 10649 10653 10656 10658 10662 10665 10668 10674 10680 10683 10691 10697 10699 10703 10706 10711 10723 10733 10737 10739 10745 10754 10761 10768 10774 10782 10796 10804 10803 10804 10810 10820 10831 10836 10835 10835 10842 10853 10851 10845 10856 10866 10868 10873 10878 10887 10899 10903 10909 10920 10923 10924 10928 10930 10929 10930 10935 10938 10936 10937 10941 10944 10947 10949 10952 10953 10955 10957 10958 10960
10656 10651 10647 10644 10641 10638 10635 10633 10629 10626 10623 10619 10618 10618 10618 10621 10625 10627 10631 10633 10636 10642 10646 10646 10648 10655 10660 10666 10672 10679 10684 10688 10691 10698 10707 10716 10723 10724 10728 10736 10745 10755 10761 10769 10783 10792 10789 10794 10807 10818 10823 10824 10826 10829 10837 10846 10843 10841 10853 10862 10865 10870 10875 10886 10896 10901 10912 10920 10918 10918 10924 10928 10928 10927 10930 10930 10928 10933 10939 10942 10944 10947 10950 10951 10953 10955 10956 10958
10645 10638 10633 10629 10627 10625 10622 10618 10614 10611 10608 10605 10603 10602 10601 10603 10606 10609 10612 10614 10619 10626 10627 10628 10632 10636 10641 10647 10652 10660 10668 10671 10675 10683 10691 10699 10706 10709 10712 10719 10730 10742 10751 10758 10770 10777 10779 10789 10801 10806 10810 10813 10818 10824 10832 10839 10839 10840 10850 10857 10862 10866 10873 10885 10894 10902 10913 10915 10912 10913 10920 10927 10924 10919 10923 10925 10924 10930 10935 10937 10941 10944 10947 10949 10950 10952 10953 10955
10633 10626 10621 10616 10614 10612 10610 10606 10601 10596 10593 10590 10588 10586 10586 10587 10589 10591 10593 10595 10601 10607 10608 10612 10617 10618 10622 10628 10634 10641 10649 10654 10659 10666 10675 10683 10690 10694 10697 10705 10717 10729 10739 10746 10755 10764 10770 10778 10786 10792 10800 10807 10813 10819 10827 10833 10836 10838 10845 10851 10858 10864 10871 10883 10891 10898 10907 10908 10906 10908 10915 10924 10918 10911 10919 10920 10918 10924 10929 10932 10937 10940 10944 10946 10947 10949 10950 10952
10622 10615 10610 10606 10602 10599 10596 10592 10588 10582 10578 10576 10573 10571 10570 10572 10573 10574 10576 10578 10582 10587 10592 10597 10599 10599 10604 10610 10615 10622 10628 10636 10642 10648 10658 10667 10674 10679 10682 10691 10702 10712 10724 10731 10739 10750 10757 10765 10778 10787 10794 10800 10805 10811 10817 10820 10822 10826 10833 10840 10848 10857 10866 10875 10881 10888 10897 10899 10898 10900 10911 10920 10911 10904 10911 10912 10913 10920 10924 10928 10933 10936 10940 10942 10944 10946 10947 10948
10612 10606 10600 10595 10591 10587 10583 10579 10575 10569 10564 10562 10559 10557 10556 10557 10558 10559 10560 10562 10564 10568 10575 10580 10581 10583 10586 10591 10598 10602 10607 10616 10624 10631 10641 10648 10656 10664 10668 10675 10685 10696 10708 10716 10724 10736 10745 10758 10773 10779 10782 10788 10794 10801 10803 10805 10810 10817 10822 10829 10842 10854 10858 10863 10870 10878 10885 10889 10891 10897 10909 10913 10898 10893 10903 10907 10911 10918 10920 10924 10929 10932 10935 10938 10941 10943 10943 10944
10601 10596 10590 10585 10580 10576 10571 10567 10563 10558 10553 10549 10547 10545 10544 10544 10545 10545 10546 10547 10549 10552 10556 10561 10565 10568 10569 10572 10579 10583 10587 10596 10604 10613 10624 10630 10638 10648 10654 10660 10669 10680 10692 10701 10711 10723 10735 10750 10761 10764 10771 10779 10786 10790 10790 10796 10806 10810 10814 10827 10843 10847 10844 10850 10861 10869 10876 10884 10888 10894 10903 10902 10887 10887 10900 10905 10909 10914 10916 10920 10924 10927 10930 10934 10937 10939 10939 10940
10589 10584 10579 10575 10569 10564 10559 10555 10550 10547 10542 10539 10536 10534 10534 10533 10532 10531 10531 10533 10535 10537 10539 10544 10549 10552 10553 10555 10561 10566 10570 10576 10584 10594 10605 10613 10620 10630 10639 10646 10653 10664 10675 10687 10699 10709 10725 10741 10747 10751 10761 10768 10772 10776 10779 10788 10796 10798 10808 10826 10833 10829 10831 10844 10856 10863 10874 10884 10886 10889 10897 10896 10885 10888 10899 10902 10905 10909 10911 10915 10918 10921 10925 10930 10933 10935 10936 10937
10579 10572 10567 10565 10559 10553 10548 10544 10539 10535 10531 10529 10527 10525 10524 10523 10520 10518 10519 10520 10521 10524 10526 10529 10533 10536 10538 10540 10543 10549 10553 10558 10566 10574 10586 10596 10602 10611 10624 10632 10639 10648 10659 10672 10684 10697 10715 10729 10731 10738 10748 10754 10759 10764 10769 10778 10786 10793 10805 10816 10816 10817 10829 10843 10852 10862 10874 10881 10882 10884 10892 10894 10886 10886 10894 10897 10899 10902 10905 10909 10912 10915 10920 10924 10928 10930 10932 10933
10571 10562 10557 10555 10550 10544 10540 10535 10530 10526 10522 10520 10518 10516 10515 10512 10509 10508 10508 10508 10508 10510 10513 10515 10518 10520 10523 10525 10527 10531 10536 10542 10549 10556 10566 10578 10586 10595 10607 10616 10625 10633 10643 10656 10669 10684 10703 10714 10716 10724 10734 10742 10748 10753 10761 10773 10783 10790 10797 10803 10807 10814 10826 10836 10844 10855 10864 10871 10876 10878 10886 10892 10885 10880 10887 10891 10892 10895 10900 10905 10908 10911 10915 10919 10922 10925 10928 10929
10562 10553 10547 10545 10541 10536 10532 10527 10522 10518 10515 10512 10509 10507 10505 10503 10501 10499 10498 10497 10496 10497 10499 10501 10504 10506 10508 10510 10511 10515 10519 10525 10532 10539 10548 10560 10570 10580 10589 10600 10610 10618 10627 10640 10653 10670 10689 10699 10704 10710 10721 10731 10737 10744 10756 10766 10772 10778 10788 10796 10803 10811 10820 10828 10836 10846 10854 10863 10869 10870 10879 10887 10878 10872 10879 10884 10885 10889 10895 10900 10904 10906 10909 10914 10917 10920 10923 10925
10555 10544 10536 10534 10533 10528 10524 10519 10514 10510 10507 10504 10500 10499 10496 10494 10492 10490 10488 10486 10485 10484 10485 10488 10490 10492 10495 10496 10498 10503 10507 10511 10517 10524 10532 10542 10553 10564 10572 10582 10593 10603 10612 10624 10638 10655 10673 10686 10692 10696 10707 10720 10728 10737 10747 10752 10757 10767 10777 10787 10795 10803 10810 10817 10830 10843 10851 10861 10865 10866 10874 10880 10872 10866 10870 10876 10880 10885 10890 10895 10900 10902 10905 10909 10912 10914 10918 10921
10548 10538 10528 10524 10523 10520 10516 10511 10507 10503 10500 10496 10492 10490 10488 10485 10482 10481 10479 10476 10474 10473 10474 10475 10477 10480 10483 10485 10487 10491 10495 10498 10503 10510 10517 10526 10536 10547 10557 10566 10577 10588 10598 10609 10623 10640 10657 10674 10681 10684 10697 10711 10719 10727 10733 10740 10749 10757 10767 10777 10783 10790 10798 10810 10828 10839 10845 10854 10860 10863 10871 10873 10865 10858 10859 10867 10876 10882 10887 10891 10895 10898 10900 10904 10906 10909 10913 10916
10539 10533 10524 10517 10515 10513 10509 10504 10500 10496 10493 10488 10484 10481 10479 10476 10473 10471 10469 10466 10464 10463 10463 10464 10466 10468 10471 10472 10474 10478 10482 10486 10491 10495 10503 10512 10520 10532 10543 10553 10562 10574 10585 10595 10609 10625 10642 10660 10670 10674 10688 10700 10705 10711 10716 10725 10735 10743 10757 10768 10772 10781 10793 10806 10821 10826 10831 10843 10850 10858 10866 10861 10853 10850 10852 10863 10873 10879 10885 10888 10891 10894 10897 10899 10902 10904 10908 10912
10530 10526 10520 10513 10508 10506 10502 10497 10493 10490 10486 10481 10477 10473 10471 10468 10464 10461 10459 10456 10453 10452 10453 10454 10455 10456 10458 10459 10462 10466 10470 10474 10478 10482 10489 10498 10507 10517 10529 10539 10548 10560 10572 10581 10595 10611 10627 10646 10659 10663 10673 10681 10683 10688 10697 10709 10722 10734 10748 10758 10764 10776 10786 10797 10807 10811 10822 10836 10843 10854 10857 10846 10845 10850 10851 10861 10872 10877 10882 10885 10885 10889 10891 10893 10896 10899 10904 10908
10523 10519 10516 10510 10504 10500 10496 10491 10486 10482 10479 10475 10470 10466 10463 10460 10457 10453 10449 10446 10443 10441 10442 10444 10444 10444 10446 10448 10450 10455 10459 10463 10466 10469 10475 10484 10494 10503 10514 10525 10534 10546 10558 10569 10583 10599 10614 10632 10646 10649 10655 10663 10668 10675 10686 10700 10714 10725 10737 10748 10757 10767 10777 10788 10797 10805 10822 10834 10840 10851 10848 10835 10842 10850 10849 10857 10868 10873 10878 10880 10880 10883 10885 10887 10889 10894 10900 10904
10517 10513 10510 10506 10502 10498 10492 10486 10479 10474 10470 10467 10464 10460 10456 10452 10450 10446 10442 10438 10434 10432 10433 10434 10434 10434 10435 10437 10440 10444 10449 10452 10455 10458 10463 10471 10480 10490 10499 10510 10521 10533 10545 10556 10571 10587 10601 10618 10632 10636 10643 10654 10661 10669 10683 10696 10708 10719 10730 10741 10750 10758 10769 10780 10789 10805 10822 10827 10835 10845 10836 10827 10839 10846 10846 10853 10861 10866 10872 10875 10876 10877 10878 10879 10882 10888 10895 10900
10514 10509 10506 10502 10498 10495 10491 10485 10477 10471 10465 10460 10456 10453 10448 10444 10441 10437 10434 10431 10427 10425 10425 10424 10424 10425 10426 10428 10430 10434 10438 10442 10445 10447 10452 10459 10469 10478 10487 10496 10508 10520 10532 10545 10559 10575 10589 10604 10619 10627 10634 10645 10653 10660 10674 10689 10702 10714 10725 10735 10743 10752 10762 10774 10787 10804 10812 10816 10831 10836 10823 10822 10837 10842 10842 10847 10852 10859 10866 10869 10871 10873 10873 10874 10877 10884 10891 10896
10509 10506 10502 10499 10494 10490 10487 10482 10475 10469 10463 10456 10451 10446 10441 10436 10432 10428 10426 10423 10420 10417 10417 10416 10416 10416 10417 10419 10422 10425 10429 10433 10436 10439 10444 10450 10459 10468 10476 10485 10496 10508 10521 10534 10549 10565 10579 10592 10607 10619 10625 10635 10645 10653 10666 10680 10692 10704 10716 10727 10735 10744 10756 10770 10785 10796 10801 10812 10825 10821 10811 10821 10832 10832 10834 10838 10844 10853 10860 10863 10867 10868 10869 10871 10874 10881 10887 10891
10505 10502 10499 10495 10491 10485 10481 10476 10470 10464 10459 10453 10447 10442 10436 10430 10425 10420 10417 10415 10413 10410 10409 10409 10408 10408 10410 10411 10413 10417 10421 10424 10427 10430 10435 10442 10450 10458 10466 10475 10485 10497 10510 10524 10540 10555 10569 10581 10596 10609 10618 10626 10636 10644 10655 10670 10683 10695 10706 10715 10725 10737 10751 10766 10778 10786 10795 10806 10810 10804 10805 10817 10822 10821 10826 10832 10839 10849 10854 10858 10862 10863 10864 10867 10870 10876 10882 10887
10500 10497 10495 10491 10487 10482 10477 10472 10466 10460 10454 10449 10443 10438 10432 10425 10421 10415 10411 10408 10407 10404 10402 10402 10402 10402 10402 10404 10406 10409 10413 10416 10419 10423 10428 10434 10442 10449 10458 10466 10476 10487 10500 10516 10531 10546 10561 10573 10586 10602 10611 10616 10626 10634 10645 10662 10675 10684 10694 10704 10716 10731 10744 10756 10767 10775 10785 10795 10795 10794 10800 10809 10812 10814 10821 10829 10837 10844 10849 10854 10857 10858 10860 10863 10866 10871 10876 10882
10495 10493 10491 10487 10483 10478 10473 10468 10463 10456 10450 10444 10438 10432 10427 10421 10415 10411 10406 10402 10400 10399 10396 10395 10396 10396 10396 10398 10400 10403 10406 10409 10413 10418 10423 10428 10434 10442 10450 10459 10468 10479 10492 10507 10523 10538 10554 10564 10576 10593 10602 10605 10614 10625 10637 10654 10664 10670 10682 10695 10708 10721 10732 10744 10755 10765 10777 10785 10784 10786 10793 10798 10802 10809 10818 10827 10833 10839 10845 10849 10851 10854 10856 10857 10861 10866 10871 10877
10492 10489 10486 10483 10479 10475 10470 10465 10459 10453 10446 10440 10433 10427 10421 10415 10410 10406 10402 10397 10394 10393 10392 10390 10390 10391 10391 10393 10395 10397 10400 10403 10406 10412 10417 10422 10427 10435 10443 10451 10461 10473 10484 10499 10515 10532 10546 10556 10566 10582 10592 10595 10604 10617 10630 10642 10648 10656 10672 10688 10700 10711 10722 10734 10747 10758 10769 10774 10775 10780 10786 10787 10792 10804 10814 10822 10827 10834 10840 10844 10847 10850 10851 10852 10856 10860 10866 10871